Theta_e
298 291 288 288 291 293 293 294 294 294 294 293 292 291 290 289 290 293 292 294 294 293 290 292 292 291 292 293 294 295 294 293 293 293 294 294 294 294 294 294 293 292 293 294 295 296 296 296 297 300 301 302 304 304 304 304 304 304 304 303 302 303 302 301 300 299 298 296 296 295 294 293 293 293 293 292 292 292 293 293 294 294 294 294 294 295
298 290 289 293 295 295 295 296 295 294 294 293 291 289 289 289 289 293 294 294 294 292 288 290 290 291 293 293 294 293 293 293 293 293 293 294 294 294 294 293 293 293 293 294 294 295 295 295 297 300 301 300 301 302 302 302 303 303 303 301 300 300 299 298 298 298 298 297 296 295 293 293 292 292 291 290 291 291 292 292 292 292 292 292 292 292
290 289 292 295 298 296 296 295 294 294 293 292 290 290 288 289 291 293 293 294 293 293 288 288 290 292 293 294 293 293 294 295 296 296 296 295 294 294 294 293 292 292 292 292 294 294 295 295 296 299 299 300 301 302 302 302 302 300 300 299 299 298 298 298 298 297 295 296 295 294 293 292 290 291 291 290 290 290 289 289 289 289 289 290 289 290
288 290 295 298 297 296 296 295 295 293 293 290 289 288 288 288 290 286 290 292 293 291 288 289 289 291 293 294 294 294 295 295 296 296 295 295 295 294 294 294 292 292 291 291 293 293 294 294 295 297 298 299 301 301 301 301 301 299 298 297 297 297 297 297 297 296 295 294 294 293 292 291 290 288 289 288 288 288 288 287 288 288 288 289 288 288
292 295 298 298 297 296 295 295 293 291 291 289 291 289 288 289 290 290 289 292 292 292 293 290 289 290 292 293 295 295 294 293 293 294 294 294 294 294 294 294 293 292 292 291 292 293 293 293 294 296 297 299 299 299 299 299 299 298 296 296 296 296 296 295 295 294 293 292 291 290 289 289 287 287 286 286 286 286 287 287 287 287 287 288 288 288
294 298 298 296 295 296 294 293 292 292 289 289 290 292 291 291 291 292 292 291 287 286 290 291 284 282 286 292 293 292 290 291 292 292 292 292 292 293 293 293 293 293 293 292 292 293 293 293 293 295 296 296 297 298 299 299 299 297 296 295 295 295 295 294 293 293 292 291 290 288 287 286 285 284 284 283 284 284 285 285 286 286 287 287 287 287
294 298 300 296 294 294 294 293 292 293 290 287 288 293 293 293 292 291 290 290 282 283 289 292 286 282 286 290 291 290 290 291 290 291 292 291 291 292 293 292 292 292 291 292 292 293 292 292 293 294 294 295 295 296 298 298 298 297 296 295 295 295 295 295 294 292 292 290 289 288 287 286 285 284 284 284 284 285 285 286 285 286 286 286 286 286
295 295 296 296 294 293 291 290 294 294 290 286 290 294 293 291 290 291 291 290 286 286 289 291 287 284 286 291 294 291 290 290 290 291 291 291 291 291 291 292 292 292 291 291 291 292 292 292 293 293 294 295 296 296 297 296 295 294 294 294 294 294 294 293 291 290 291 289 288 286 285 285 284 284 284 284 284 284 285 285 285 285 285 286 286 286
294 292 293 293 292 292 291 291 293 294 291 288 293 293 292 292 291 290 290 287 285 285 284 286 289 284 284 286 290 292 289 289 289 291 291 291 292 291 291 292 291 292 292 292 291 291 292 292 292 292 292 293 295 295 295 294 293 292 292 292 291 291 291 290 290 290 289 289 287 286 286 285 285 285 285 285 285 284 285 284 284 284 284 285 285 285
297 294 296 296 294 291 292 292 293 295 291 293 293 293 292 291 290 290 286 288 284 283 282 284 288 284 286 286 286 288 288 290 291 292 293 292 292 292 291 291 291 291 290 291 292 291 292 292 291 291 291 293 293 294 294 292 291 291 291 290 290 290 290 290 289 289 289 288 287 286 285 285 285 285 285 285 284 284 284 283 283 283 283 283 284 284
297 295 296 296 293 294 291 292 290 294 294 294 293 291 289 287 285 283 283 283 285 281 284 286 288 287 283 285 288 287 288 292 294 292 292 291 291 292 292 292 291 290 290 290 290 291 291 290 289 290 291 291 292 292 292 291 291 290 290 290 289 289 289 289 289 289 288 287 287 286 286 286 285 285 285 284 283 283 283 283 282 283 283 283 283 283
293 294 294 293 296 293 293 292 292 291 294 295 289 285 286 285 280 281 282 285 281 282 284 288 288 288 282 281 287 293 292 291 292 293 292 290 291 291 291 291 291 290 290 290 290 289 288 288 288 289 289 290 290 290 290 289 289 289 289 289 289 289 289 289 288 288 288 288 287 287 286 286 286 286 285 284 283 283 282 283 282 282 282 282 282 282
288 288 291 294 296 295 290 290 290 287 290 291 289 289 285 281 279 276 280 278 280 282 282 286 288 283 285 291 289 290 291 294 292 294 294 292 291 291 290 290 290 290 290 290 289 288 287 288 287 288 288 288 289 289 289 289 289 289 289 289 289 288 288 288 289 288 288 287 287 287 286 286 286 286 285 284 284 283 283 283 282 282 282 281 282 281
286 287 292 292 293 294 295 291 284 286 288 289 289 285 283 278 278 278 276 276 276 280 283 282 285 285 284 288 293 296 298 292 289 289 291 293 292 291 290 290 290 290 290 289 288 287 287 288 288 288 288 288 288 288 288 288 288 289 289 289 289 288 288 288 288 288 287 287 287 287 287 287 286 285 285 285 284 284 283 283 282 282 282 281 281 281
281 282 289 292 288 294 296 296 294 288 288 290 289 290 286 284 279 277 278 277 277 279 278 280 283 279 280 287 288 286 286 287 287 289 290 290 291 291 290 289 289 289 289 289 288 287 287 287 287 288 288 288 288 289 289 289 288 288 288 288 288 287 287 287 287 287 287 287 287 287 287 286 286 286 285 285 285 284 283 283 282 282 282 282 281 281
287 287 288 297 292 295 294 296 293 289 289 287 288 289 285 287 285 284 278 277 276 276 275 277 281 281 286 287 286 286 287 287 287 288 290 289 289 288 288 288 288 289 288 288 287 287 287 287 287 287 287 288 288 288 288 288 288 288 288 287 287 287 287 287 287 287 287 287 287 286 286 286 286 286 285 285 285 284 283 283 282 282 281 281 281 281
285 284 288 293 292 295 295 295 294 295 286 286 289 286 289 290 290 284 280 279 279 279 281 280 281 283 286 290 287 288 288 287 287 288 288 288 288 288 288 288 288 288 288 287 287 287 287 286 286 287 287 288 288 288 288 288 288 288 287 287 287 287 286 287 287 286 286 286 286 286 286 286 285 285 284 284 283 283 283 282 282 282 281 281 281 281
286 286 288 289 289 291 289 292 293 292 292 287 283 288 290 290 289 287 283 283 281 280 283 282 282 282 282 284 284 286 286 287 288 286 287 286 287 287 287 288 288 288 288 288 287 287 287 287 286 287 287 288 288 288 288 287 287 287 287 287 286 286 286 286 286 286 286 286 285 285 285 285 285 285 284 284 283 283 282 282 282 282 281 281 281 282
293 285 286 286 288 290 291 294 293 294 292 290 287 291 291 283 283 285 284 280 280 279 281 280 281 284 284 287 283 285 285 287 287 286 285 286 286 287 287 287 288 288 288 287 287 287 286 287 286 286 287 287 287 288 287 287 287 287 286 286 287 286 286 286 286 286 286 286 286 286 285 285 284 284 284 283 283 283 282 281 281 281 281 281 281 280
290 287 284 286 287 289 290 290 284 287 293 291 292 290 289 284 281 282 285 282 283 280 276 279 278 282 285 288 286 289 288 289 288 286 286 288 288 288 288 288 288 288 288 288 287 287 287 287 286 286 286 286 286 287 287 287 286 286 286 286 286 286 286 285 285 285 285 285 285 285 284 284 284 284 284 283 283 282 281 281 281 280 280 280 279 278
290 290 283 285 286 289 284 286 288 290 287 285 286 284 288 286 287 285 282 283 279 274 274 277 278 280 281 288 290 291 290 290 289 289 289 289 288 289 289 289 288 288 288 288 288 287 287 286 285 285 285 285 285 286 287 286 286 286 286 286 286 285 285 285 285 285 285 285 285 285 284 284 284 283 283 282 282 281 281 280 280 279 279 279 278 278
290 286 286 282 283 283 284 288 291 292 293 290 289 287 290 286 284 281 281 284 283 280 278 275 280 284 287 289 288 290 292 291 291 291 290 290 289 289 289 289 289 288 288 288 288 287 286 286 285 284 284 284 285 285 286 286 285 285 285 286 285 285 285 285 285 285 285 285 285 284 284 284 283 283 282 281 281 280 280 279 279 279 278 278 278 278
293 285 284 280 282 286 287 289 290 290 290 289 290 287 291 290 288 285 281 279 282 286 280 276 273 285 286 287 286 286 288 291 291 291 291 290 290 289 289 289 289 289 288 288 288 287 286 286 285 285 284 284 285 285 285 285 285 285 285 285 284 285 284 285 285 285 285 284 284 283 283 283 282 282 281 281 280 280 279 279 278 278 278 278 277 278
294 288 287 285 287 287 289 289 289 289 291 288 287 285 287 287 288 289 287 285 285 281 280 276 277 282 285 286 285 285 285 287 289 290 290 290 290 290 289 288 288 288 288 288 287 286 285 285 284 283 283 283 284 284 285 285 285 285 284 284 284 284 284 284 284 284 284 283 283 283 282 282 281 281 280 280 280 279 278 278 278 278 278 277 277 277
290 287 288 285 284 284 286 288 288 288 287 284 284 287 289 290 290 289 287 286 282 284 282 281 279 284 286 285 283 285 285 287 289 289 290 289 289 290 289 289 289 289 288 287 287 286 285 284 283 284 284 284 284 284 285 285 284 284 284 284 284 284 284 284 284 284 283 283 282 282 282 281 281 280 280 279 279 278 278 278 277 277 277 277 276 276
292 287 288 284 281 279 278 278 280 283 285 286 284 285 289 289 288 287 285 287 283 285 285 284 284 288 286 286 286 286 285 286 287 287 288 290 290 290 290 290 290 289 288 287 287 285 284 285 285 284 284 284 284 284 284 285 284 284 284 284 284 284 283 284 284 283 283 282 282 282 282 281 280 280 279 279 278 278 278 277 277 277 277 277 277 276
288 287 289 289 287 286 286 284 286 286 283 284 284 287 287 289 291 290 289 286 284 285 284 288 288 287 286 286 286 286 284 287 288 287 288 289 290 291 291 290 290 290 289 288 287 287 286 285 284 285 285 285 284 284 285 285 285 284 284 283 283 284 284 284 284 283 283 282 282 282 282 281 280 280 279 278 278 278 277 277 277 278 277 277 277 276
287 287 289 289 288 289 283 285 286 288 285 286 285 285 288 288 288 288 287 285 288 285 283 289 289 287 289 287 287 285 284 285 287 289 290 291 291 291 291 290 291 288 287 287 287 286 285 285 285 284 284 284 284 284 285 285 285 284 284 283 283 284 284 284 284 283 283 282 282 282 281 281 280 279 279 279 278 278 277 277 276 277 277 277 276 275
288 286 288 288 288 290 289 286 286 287 287 287 287 287 286 287 287 286 287 290 289 287 285 288 289 288 290 289 290 289 288 289 289 289 291 292 291 290 289 289 289 289 288 288 288 287 286 285 286 285 285 284 284 284 284 284 284 284 284 284 284 284 285 284 284 283 283 282 282 282 281 280 280 280 279 278 278 277 277 277 277 276 276 276 275 275
289 288 287 289 288 289 289 287 285 287 286 286 286 287 287 287 287 288 289 290 289 288 290 290 288 289 291 289 289 289 290 291 290 291 291 291 290 290 290 289 289 289 288 288 288 288 288 288 287 286 285 284 284 284 284 284 284 284 284 284 284 284 284 284 284 283 282 282 282 281 280 280 280 280 279 278 278 277 277 277 276 276 275 275 274 274
290 286 290 287 286 287 288 287 287 286 286 286 287 286 286 286 287 288 289 289 289 289 290 289 287 287 290 289 288 290 290 290 290 290 291 291 290 290 290 290 289 289 289 289 288 288 289 288 287 286 285 284 284 284 284 284 284 284 284 284 284 284 284 284 283 283 283 282 281 280 280 280 279 279 279 279 278 277 276 276 276 275 275 275 274 274
289 285 286 287 284 284 286 286 286 284 284 285 286 286 285 285 285 287 286 289 288 287 288 288 287 288 290 290 289 289 289 290 289 290 290 290 290 290 290 290 289 290 289 290 289 289 289 288 287 286 285 285 284 284 284 284 284 284 284 284 284 284 284 283 283 283 282 281 281 280 280 280 279 279 279 278 277 276 276 275 275 275 275 274 273 273
287 286 283 285 282 284 283 286 285 284 284 282 284 287 287 288 289 290 289 289 289 290 287 286 287 292 291 290 289 288 289 290 290 291 291 291 290 289 290 289 290 290 290 290 290 289 288 288 287 287 286 285 285 285 285 285 284 284 284 284 284 283 283 283 283 282 282 281 281 280 280 279 278 278 278 277 277 276 276 275 275 274 274 273 274 273
286 287 285 287 281 281 279 284 285 282 276 280 287 291 291 288 288 287 287 288 289 290 290 292 290 288 288 288 290 288 289 290 292 293 294 294 291 289 290 290 292 292 292 291 290 289 289 289 288 287 287 286 286 286 285 285 284 284 285 284 284 283 283 283 282 282 282 281 281 280 280 279 278 278 277 277 277 276 275 275 274 274 274 274 273 272
286 286 285 286 283 279 281 282 280 274 279 286 283 285 290 292 291 289 290 290 290 290 290 289 285 286 289 290 292 291 292 292 290 292 291 291 293 293 291 291 292 293 292 290 289 289 289 288 288 287 286 286 286 285 284 284 284 284 284 283 283 283 283 283 282 282 282 281 281 280 279 279 278 277 277 277 276 276 275 275 274 274 273 273 273 272
285 285 285 284 283 280 278 281 274 278 284 283 281 280 280 285 287 288 287 289 290 289 290 289 288 288 289 290 290 291 291 291 291 289 289 291 293 294 293 294 294 292 290 290 290 290 289 288 288 288 288 287 286 285 285 285 284 283 283 283 283 282 283 283 282 282 282 281 281 280 280 278 277 277 277 276 275 275 275 274 274 273 273 272 272 271
288 287 286 282 285 278 279 279 280 284 284 283 280 282 285 284 284 285 282 286 290 290 289 289 288 287 288 289 290 289 287 288 288 291 289 288 291 293 295 295 294 291 291 291 290 290 290 290 289 288 287 286 286 286 285 285 284 283 282 281 282 282 282 282 282 282 281 281 281 280 279 278 277 277 276 276 275 275 274 274 273 273 272 271 272 270
290 286 287 283 282 284 279 277 277 278 276 282 281 283 287 286 289 290 287 282 282 287 288 289 287 288 288 289 287 285 288 287 287 288 291 288 287 287 287 288 288 289 289 289 288 288 287 287 287 286 287 286 285 286 285 283 283 282 281 281 281 281 281 281 281 282 282 281 280 279 279 279 278 278 277 276 275 275 275 274 274 273 272 271 270 270
285 286 286 285 283 281 280 278 278 276 280 280 281 281 283 283 287 283 279 277 281 284 288 289 288 288 289 287 284 286 287 284 285 288 287 287 287 286 287 285 286 286 286 286 286 286 285 285 286 285 284 284 284 283 283 283 282 282 281 281 281 281 281 281 281 282 281 281 281 280 279 279 278 278 277 276 276 276 275 274 273 273 271 271 270 269
284 284 284 283 282 282 281 279 277 281 276 281 279 280 283 284 287 284 273 273 280 283 285 288 288 287 287 287 285 286 286 281 285 287 287 287 288 287 287 285 283 283 282 282 282 284 283 283 284 283 284 284 285 283 282 282 282 282 281 281 280 280 281 281 282 282 282 282 281 279 279 279 279 278 278 277 276 276 275 274 271 270 270 268 268 267
281 281 283 280 282 282 282 281 281 281 282 281 279 281 283 286 287 279 273 278 281 282 283 286 287 287 286 284 285 284 287 288 286 284 282 281 283 282 282 283 283 282 282 282 282 283 283 283 285 285 284 284 282 281 281 282 282 281 281 281 280 280 281 283 282 281 281 280 280 279 278 279 279 278 278 277 276 274 272 271 270 268 268 267 266 265
280 281 281 283 281 280 282 279 280 281 284 282 280 284 285 285 277 276 284 281 283 284 283 286 286 286 287 286 286 288 285 280 280 279 280 281 281 280 280 280 280 280 280 281 282 282 281 281 281 281 281 280 280 280 281 282 282 281 280 279 280 281 282 280 279 279 278 279 279 279 278 277 277 278 276 273 271 270 269 267 268 267 266 266 265 264
281 279 277 279 282 281 281 279 278 275 284 283 284 283 284 281 281 285 283 281 283 283 284 283 284 284 286 285 285 281 279 279 280 280 279 278 279 279 278 279 280 281 281 280 280 280 281 280 279 280 280 278 278 279 280 281 281 279 279 279 281 281 278 277 277 278 278 278 278 277 277 276 275 274 273 271 271 270 269 266 265 264 264 264 263 263
286 279 280 281 285 277 279 276 278 284 284 286 287 283 285 285 286 283 285 282 282 281 282 283 283 284 284 285 284 281 279 279 278 277 278 277 277 277 277 278 278 279 279 280 280 280 279 279 278 278 277 276 276 278 280 281 281 279 278 280 281 277 276 276 276 277 277 277 276 275 274 273 273 272 271 270 269 269 267 265 264 263 264 263 263 263
287 282 282 280 286 282 280 283 284 283 286 284 283 283 284 285 283 283 284 282 281 280 279 282 284 281 283 283 283 282 279 279 279 278 278 278 277 277 278 278 278 279 279 280 280 279 278 279 279 278 276 276 275 276 278 279 280 278 278 280 278 278 276 275 274 275 275 275 274 274 272 271 272 271 270 269 269 268 266 264 263 263 262 262 263 262
281 283 282 283 283 283 282 283 283 282 284 282 282 283 282 282 282 283 283 282 280 280 282 283 282 280 278 280 282 279 280 278 277 276 276 277 276 276 277 277 276 276 276 277 277 278 278 276 275 276 278 276 274 275 275 277 279 278 280 277 277 276 275 274 274 274 275 274 272 271 269 269 267 267 267 267 268 269 268 266 264 265 263 262 263 263
282 282 283 282 283 284 280 281 282 284 282 281 282 281 281 281 281 281 282 282 281 279 280 278 281 280 279 278 280 280 278 277 278 277 277 277 277 277 277 278 277 277 277 277 278 278 277 275 276 276 276 277 274 274 274 275 277 280 276 273 274 273 273 274 275 274 272 272 270 267 268 269 268 266 264 265 265 266 265 265 265 265 263 263 263 263
281 282 281 280 280 281 281 280 279 279 280 281 282 282 282 281 281 280 281 280 279 279 279 277 278 278 277 277 277 279 278 277 277 277 277 277 277 277 277 277 277 276 277 278 276 277 276 277 278 277 276 277 277 275 274 274 276 276 272 268 271 270 271 273 273 274 273 271 269 268 268 269 266 266 265 264 265 265 264 264 264 265 265 263 264 264
282 284 276 280 279 279 278 278 278 279 281 282 280 280 282 281 281 279 278 277 277 279 277 276 276 278 278 279 277 277 276 275 276 277 277 277 277 276 277 277 277 277 276 277 274 276 278 277 277 277 276 278 275 273 272 273 273 270 272 270 267 270 272 272 270 269 267 267 267 267 266 267 266 266 265 264 263 265 266 265 264 265 266 265 263 266
280 278 278 279 275 275 277 278 279 279 276 280 280 282 281 281 280 279 278 278 277 277 277 278 277 276 275 277 277 276 276 276 275 276 276 277 278 277 276 276 275 275 274 274 274 274 274 272 274 274 274 275 271 271 271 271 271 268 269 267 266 269 272 270 269 267 268 267 267 266 265 265 265 264 264 264 264 263 263 265 268 266 265 263 268 271
280 279 280 279 279 277 280 280 281 282 281 281 283 283 281 280 280 279 279 279 277 277 276 277 277 277 277 277 275 276 275 277 277 276 275 275 276 277 277 276 276 274 274 272 272 271 272 273 271 270 270 273 270 271 271 272 270 269 269 270 269 270 271 269 269 269 268 267 267 267 266 265 264 263 263 263 263 262 263 261 265 271 272 271 269 271
Wind_Speed
3 4 5 7 8 9 5 9 10 8 5 4 2 2 4 4 5 2 1 3 4 1 7 10 10 7 6 8 10 11 6 6 6 7 8 8 8 8 7 7 7 8 7 5 5 5 5 5 4 4 4 5 5 5 5 4 4 5 6 6 8 8 7 7 8 7 7 9 10 9 10 10 7 8 8 9 8 8 8 9 9 10 9 9 10 9
3 5 8 8 9 6 9 9 8 6 6 5 6 5 7 2 7 3 2 2 1 4 3 5 6 8 9 5 9 5 6 11 12 11 10 10 10 9 9 8 8 6 4 5 4 4 4 4 4 4 5 4 7 4 4 5 4 4 5 6 7 6 5 4 5 7 6 4 5 10 8 9 7 7 8 9 8 8 8 10 10 9 9 9 9 9
4 10 7 12 6 4 5 5 5 7 7 7 7 6 5 8 4 4 1 0 1 1 7 5 6 8 8 7 5 8 12 12 14 16 16 15 12 10 9 9 8 8 7 5 5 5 5 5 4 4 5 4 5 6 5 4 6 6 5 5 6 5 6 6 7 7 8 7 6 9 8 9 10 7 7 9 8 7 9 9 9 8 8 9 9 9
5 5 13 9 4 6 6 5 6 4 3 6 6 3 8 4 1 6 2 0 2 4 2 1 6 8 7 7 8 10 14 10 10 9 6 8 14 14 14 13 12 10 10 9 8 7 6 5 5 5 5 6 6 6 5 5 6 6 6 6 7 7 6 7 6 9 10 10 11 11 10 9 10 9 7 9 7 8 11 11 8 8 8 9 9 9
11 3 5 7 7 7 7 6 5 7 8 3 5 4 3 3 4 6 5 1 1 3 1 5 8 9 6 12 11 9 4 1 1 2 2 5 5 6 6 7 11 14 12 10 8 7 7 7 6 7 6 6 6 5 5 4 5 5 7 7 8 8 8 7 9 11 12 12 12 11 11 11 11 8 8 9 9 8 8 9 9 8 7 9 9 9
11 7 3 6 6 7 6 6 7 7 7 5 4 7 6 4 4 4 1 1 2 3 3 2 6 6 5 10 13 3 2 4 2 6 8 7 6 8 10 11 7 7 9 13 11 10 9 8 6 6 6 6 5 5 4 5 6 8 7 8 8 7 8 9 9 9 8 10 12 10 10 10 9 9 7 8 8 7 8 8 5 8 8 8 9 9
6 5 7 5 5 6 7 7 5 8 8 3 5 5 6 7 6 6 4 2 3 5 3 2 7 9 1 2 6 4 5 9 3 7 9 6 7 8 10 10 10 11 9 7 7 8 8 8 8 7 7 6 6 4 5 6 7 8 7 7 7 8 8 8 7 5 7 8 7 8 8 8 10 11 6 5 5 8 6 7 9 8 8 8 10 9
4 7 9 6 6 8 6 7 5 9 6 5 2 2 6 5 6 7 5 5 6 2 2 0 3 7 14 8 7 5 8 10 11 11 8 8 8 9 9 9 10 10 10 11 11 9 7 8 9 9 7 7 7 5 5 6 6 7 7 7 7 7 7 5 5 5 6 10 9 10 10 9 9 10 11 8 7 6 7 9 9 8 8 7 7 8
4 5 6 6 6 7 9 7 5 7 6 4 2 5 3 6 6 3 2 2 1 3 8 3 2 3 10 4 2 8 7 9 15 15 14 13 12 10 9 10 10 10 11 12 11 11 9 9 7 7 8 5 6 6 7 6 6 6 6 7 7 7 7 6 7 8 7 9 10 10 10 11 8 9 9 8 7 8 7 10 7 8 7 7 7 7
1 5 8 10 8 8 4 0 3 9 5 2 2 5 5 5 4 3 1 1 2 1 7 6 5 5 19 4 3 0 5 12 13 16 17 16 15 13 11 9 8 7 7 8 10 9 8 7 7 7 7 7 6 6 6 6 6 6 5 7 8 7 7 7 8 10 9 9 9 10 10 14 11 9 8 7 8 7 7 9 7 6 7 6 7 7
0 1 3 3 5 4 5 1 1 2 3 4 5 6 5 8 4 3 4 3 3 8 8 8 10 8 13 2 9 7 9 12 12 5 5 5 8 10 11 12 10 9 9 8 8 8 7 6 8 9 10 8 6 6 7 7 6 6 7 7 8 7 7 8 9 11 11 8 8 10 11 13 14 11 11 11 8 7 7 9 7 7 6 5 6 6
1 1 1 1 2 3 3 3 4 2 3 8 2 4 5 3 5 3 2 2 2 12 5 12 10 11 12 4 4 9 2 2 5 9 9 11 15 14 11 9 10 10 9 9 10 9 9 9 8 8 9 9 8 6 7 6 6 6 6 8 9 7 8 8 9 11 11 9 8 9 10 11 11 12 10 11 12 9 9 8 8 6 6 6 5 5
3 3 2 1 3 8 3 5 3 5 1 5 7 7 6 3 4 2 2 3 8 11 1 7 9 2 18 13 5 5 7 11 6 8 9 13 13 11 10 10 11 10 10 11 10 10 10 11 11 10 9 8 8 8 7 8 7 7 8 9 11 8 7 9 9 11 10 9 9 10 9 9 9 9 10 10 10 8 9 8 8 8 7 6 6 5
7 1 2 3 3 4 8 9 2 0 3 7 9 8 6 2 3 5 3 3 5 4 3 3 3 9 2 8 10 18 17 5 4 6 5 10 13 14 14 12 12 11 11 10 10 10 10 10 10 10 10 9 8 8 8 8 8 7 8 9 11 9 7 8 9 10 11 9 9 8 9 9 9 9 9 8 10 8 7 7 8 7 7 7 7 6
4 4 8 8 5 5 9 12 14 7 9 9 4 12 10 8 4 4 6 7 7 6 2 2 5 7 4 6 1 5 5 5 4 4 1 5 7 9 9 9 10 11 10 11 12 12 12 12 12 12 11 10 9 10 9 8 8 8 9 9 11 10 8 9 9 9 10 9 8 7 7 7 7 8 8 7 7 8 8 6 7 6 6 7 6 6
13 8 6 14 0 9 12 5 7 5 3 3 3 4 4 11 6 10 3 2 1 1 2 1 7 4 6 2 2 1 3 3 4 2 6 7 8 10 10 12 12 11 11 11 11 11 10 10 10 10 10 10 10 11 9 9 9 9 9 9 10 11 9 9 9 8 9 8 8 7 8 8 8 7 7 7 6 6 7 7 8 7 6 6 6 5
1 6 2 3 3 13 11 4 4 8 7 4 5 8 9 1 4 3 2 0 0 2 11 5 7 6 7 10 6 1 0 1 3 2 4 7 9 10 11 11 12 12 12 12 12 11 11 9 9 10 11 11 10 10 11 11 10 11 11 11 11 11 8 9 9 9 8 8 9 8 8 8 8 9 9 9 9 8 7 7 7 7 6 6 6 6
8 4 2 3 4 1 1 1 1 2 4 6 5 8 3 2 3 3 5 1 1 7 7 5 10 5 2 12 2 1 1 2 1 3 4 5 9 12 11 12 13 13 11 9 9 9 11 11 11 10 9 10 11 11 10 10 8 9 10 11 12 11 12 9 9 9 9 10 9 9 9 8 8 9 8 9 10 8 9 7 6 6 7 6 6 6
3 5 2 1 0 2 2 3 1 1 1 8 6 3 8 4 3 2 2 7 4 7 6 4 6 10 10 12 3 3 6 9 8 5 5 8 9 11 10 10 8 8 9 11 12 11 12 12 12 11 11 9 8 8 8 8 8 8 7 9 10 12 11 10 8 8 7 8 8 7 9 9 9 8 8 8 8 8 9 9 7 7 7 6 5 6
2 6 2 1 2 1 1 4 7 6 0 1 2 3 0 3 1 6 8 1 3 6 1 6 4 12 7 7 10 10 14 14 11 8 13 15 15 13 12 12 13 13 13 12 11 11 11 11 10 12 12 13 12 11 9 9 8 9 9 10 9 8 8 8 9 9 10 8 8 8 8 7 8 8 9 9 10 9 8 8 8 8 7 7 6 5
4 2 5 1 3 2 3 5 10 13 10 1 2 4 1 0 2 3 1 5 6 3 4 6 10 6 5 5 12 14 15 15 16 18 14 13 13 12 12 14 13 12 12 12 12 12 12 12 10 10 9 9 8 7 8 9 11 10 9 10 11 13 11 11 10 10 9 9 9 11 11 10 9 9 8 9 8 9 8 7 7 7 6 6 6 6
2 3 9 3 1 6 5 3 4 5 9 11 13 12 13 9 5 5 9 1 3 2 6 4 15 5 2 2 3 7 9 10 15 17 15 13 13 12 11 11 12 12 11 12 12 11 11 10 10 8 7 7 9 10 11 9 9 10 11 11 11 10 10 12 10 10 10 9 10 11 11 10 8 9 8 9 8 9 8 7 7 7 6 7 6 6
5 2 6 3 6 8 6 2 2 2 1 2 5 6 10 9 7 7 10 4 0 7 1 2 2 12 1 1 2 4 5 8 12 11 11 9 10 10 9 9 9 10 11 13 12 10 9 9 10 11 12 12 12 11 10 9 11 11 11 11 10 11 11 10 10 9 9 10 10 10 9 9 9 9 9 10 9 9 8 7 7 6 8 7 6 5
8 3 6 1 1 1 2 1 2 2 1 2 3 3 4 10 7 8 5 4 7 2 3 1 5 6 2 1 3 4 5 6 5 7 9 7 8 9 11 11 11 10 9 6 6 6 8 8 8 9 10 11 11 11 12 10 9 9 10 11 10 12 11 10 9 9 10 10 10 10 10 10 9 10 10 10 9 10 8 8 7 7 7 6 6 7
6 4 5 3 1 0 0 2 1 2 1 5 4 5 6 3 6 3 2 1 1 10 6 7 15 7 1 2 2 4 4 1 6 7 8 9 8 8 9 10 10 8 7 8 10 10 10 10 12 13 12 12 11 10 10 10 11 11 11 10 11 10 10 10 9 10 10 11 12 10 11 10 10 11 11 10 9 10 9 8 8 7 7 7 6 5
6 4 10 9 12 10 8 9 8 10 11 3 2 4 9 14 10 5 7 7 9 2 12 9 16 4 4 2 2 3 3 2 1 3 4 6 9 10 8 9 10 11 11 11 11 10 14 15 12 10 11 11 12 12 12 11 11 11 10 11 10 11 10 10 9 10 11 11 12 12 12 12 11 12 12 11 10 10 9 9 8 8 7 7 8 6
3 1 8 12 13 14 7 2 1 7 5 8 7 12 11 10 14 11 6 4 14 3 9 17 14 9 9 2 3 3 1 0 1 3 7 6 6 7 8 10 11 12 13 14 14 12 9 8 13 13 12 12 11 12 12 12 12 11 11 11 10 10 11 10 11 11 12 12 12 12 13 12 12 12 11 11 10 9 8 8 8 9 9 7 7 7
2 3 11 11 10 12 4 2 3 8 9 10 9 12 13 14 13 14 14 17 7 4 16 9 4 12 16 4 7 6 4 3 4 5 7 7 9 10 10 10 8 6 5 6 7 10 14 14 11 11 12 12 12 11 11 11 11 12 13 13 11 11 11 10 12 12 12 12 12 12 13 12 11 11 10 9 9 9 8 8 7 7 7 7 7 7
6 7 7 5 14 14 6 2 5 2 4 5 11 13 14 15 14 18 20 17 10 13 19 7 13 17 15 7 9 10 10 11 10 6 3 4 6 6 8 9 10 11 10 11 12 11 10 12 14 14 12 12 11 13 13 12 11 10 9 9 11 11 13 12 12 13 13 12 13 12 11 10 9 8 9 9 9 9 9 9 8 7 7 6 6 6
4 8 3 9 16 13 11 6 4 5 3 2 6 11 13 15 19 19 20 19 15 13 17 14 7 14 10 6 8 6 6 5 4 3 4 8 8 8 8 8 9 9 10 11 11 12 13 14 11 11 11 11 14 14 12 12 12 13 13 12 12 13 11 12 13 13 13 13 13 11 10 10 9 10 10 10 10 10 9 9 8 8 8 7 6 6
6 3 8 5 7 12 9 4 5 5 6 12 13 11 11 7 8 13 16 16 14 16 20 11 5 14 3 2 3 2 5 7 8 7 6 5 7 9 9 9 8 10 10 10 9 12 12 12 10 9 12 14 14 14 14 13 12 10 10 10 12 12 11 12 13 13 13 13 11 10 10 10 10 10 12 11 10 9 9 9 8 8 8 7 7 7
4 3 2 5 7 9 4 9 9 5 4 12 19 19 7 7 7 15 14 14 12 19 17 14 15 18 4 3 5 5 7 10 9 7 6 5 6 8 8 8 8 8 9 10 12 11 10 10 12 14 15 15 15 14 13 13 13 12 13 13 12 11 10 11 12 13 12 11 10 11 12 11 11 11 11 10 11 10 9 8 8 8 8 8 8 7
6 6 6 6 7 6 2 8 8 5 2 9 26 17 12 17 18 14 14 13 15 16 12 14 19 18 6 6 8 4 7 8 10 10 8 6 7 9 9 9 9 8 10 10 10 10 11 13 14 15 14 13 14 15 16 15 13 15 15 14 13 9 10 11 12 11 11 11 12 12 12 11 12 12 10 10 10 9 9 9 9 8 9 10 8 7
5 8 6 5 6 2 2 6 8 7 4 18 2 12 22 22 23 20 19 17 17 14 16 15 9 2 8 7 10 10 10 12 12 9 9 12 10 8 4 4 5 6 6 5 5 7 9 9 9 11 13 14 14 15 12 11 14 14 12 11 9 11 12 13 12 12 13 12 13 12 12 11 11 11 10 10 9 9 10 10 11 9 8 7 7 8
10 7 5 4 4 3 4 8 6 8 18 2 1 1 8 14 15 19 21 18 16 16 15 11 4 6 10 12 12 12 10 6 5 8 5 5 7 7 6 7 6 6 7 6 6 9 10 10 8 7 7 9 11 9 9 10 11 9 9 10 12 12 13 13 13 12 12 13 12 11 11 11 11 11 10 10 10 10 10 10 8 8 8 8 10 10
8 9 4 3 3 4 1 6 5 11 2 0 3 1 1 3 3 9 11 14 13 14 16 17 12 7 8 6 5 7 8 5 2 3 3 2 3 3 4 7 8 8 9 10 12 12 9 9 11 12 13 9 7 9 11 13 12 11 12 10 12 12 12 12 12 12 11 12 12 13 12 12 11 11 10 10 10 10 10 10 10 10 8 7 6 4
12 6 5 4 4 5 5 7 10 8 14 5 3 2 5 6 7 10 8 12 13 13 13 13 8 5 5 5 7 3 4 3 3 9 2 3 7 9 10 9 9 11 12 9 8 10 11 11 10 10 6 7 10 10 12 11 10 10 8 9 10 11 11 11 12 13 14 13 12 12 11 11 12 12 11 11 11 11 11 11 10 8 7 8 8 9
8 11 6 6 5 7 4 3 3 4 11 9 3 5 5 2 8 11 5 7 2 6 10 12 10 11 10 5 3 5 5 4 7 9 8 7 4 2 2 4 4 5 6 6 4 2 3 4 4 4 7 8 8 9 7 6 9 9 9 10 10 11 11 12 14 14 13 13 12 12 13 14 14 13 12 12 13 13 12 10 8 9 9 11 11 10
4 1 3 11 2 6 7 8 7 9 8 2 5 4 2 1 7 5 4 6 4 5 10 12 10 11 11 9 6 7 6 7 9 9 4 6 5 5 5 3 4 4 4 5 7 6 5 5 5 5 4 5 6 5 6 8 9 10 10 10 10 10 12 14 15 13 13 14 14 12 13 12 13 13 13 14 14 13 13 12 12 9 8 8 7 8
5 5 5 7 9 8 8 7 11 5 4 2 5 1 4 4 6 7 2 5 2 5 5 7 9 8 8 9 9 9 9 7 10 8 5 9 7 5 7 7 5 5 4 3 2 3 5 5 6 4 5 7 7 6 7 8 9 9 10 9 9 10 13 15 15 14 13 10 9 10 11 11 13 13 13 14 11 10 10 7 7 8 9 7 6 7
6 5 9 14 12 11 11 10 3 5 2 3 4 3 5 3 5 6 9 5 2 5 4 5 7 7 8 9 10 8 11 7 4 4 4 4 4 3 2 2 3 5 7 5 5 5 6 5 6 8 8 6 5 6 7 8 8 8 8 9 9 13 15 15 11 8 9 9 9 10 11 11 12 14 13 11 12 10 7 7 8 7 8 8 6 6
2 3 1 7 10 12 12 9 11 3 4 7 2 8 5 6 5 7 5 1 6 5 4 6 5 5 8 12 11 9 4 3 4 4 4 4 4 4 4 4 5 3 2 3 5 5 5 4 4 3 2 3 6 6 7 7 8 8 7 7 11 15 13 5 5 7 6 9 10 10 11 11 10 10 10 7 8 9 8 5 6 7 7 6 6 8
14 10 11 12 7 1 2 8 3 10 4 8 8 2 2 4 6 4 4 1 1 3 5 2 5 4 7 6 5 4 6 4 5 5 4 4 6 5 5 6 6 7 6 4 3 2 6 5 4 5 5 4 4 5 6 7 8 6 6 8 14 8 3 5 5 7 8 8 9 10 10 10 10 10 8 9 9 10 9 7 7 7 7 8 7 8
7 7 5 8 7 8 10 10 8 2 8 9 14 10 6 5 3 6 7 2 0 3 4 4 2 5 6 7 8 5 5 6 2 4 4 3 3 3 3 3 3 4 3 2 4 6 5 5 4 4 4 3 4 5 6 8 8 6 7 12 7 3 4 5 6 6 7 8 8 8 8 9 9 9 8 9 9 9 9 9 8 8 8 8 8 8
11 10 4 8 7 8 5 2 1 1 8 4 1 1 3 3 3 6 5 6 6 3 3 3 5 4 6 6 6 7 4 4 5 6 7 6 5 5 6 6 7 7 7 7 6 5 5 7 7 5 4 4 4 4 5 5 8 6 9 8 4 6 6 6 6 7 7 8 8 8 7 7 8 9 9 9 11 11 9 8 9 9 6 8 8 8
3 3 1 6 1 3 2 1 1 3 6 3 2 1 3 4 3 4 6 5 3 4 8 7 5 5 4 5 9 3 4 5 6 5 4 6 6 5 3 3 3 3 3 2 2 5 5 4 4 5 6 5 4 4 4 5 7 9 10 4 6 5 6 7 7 7 9 7 7 7 7 8 6 6 7 8 9 10 10 12 12 11 9 9 9 9
2 1 2 3 2 6 5 3 5 8 4 3 3 2 2 2 2 3 4 4 5 5 4 2 7 6 7 6 7 7 5 6 6 6 5 6 7 6 6 7 5 7 7 8 7 6 5 5 5 6 6 7 5 5 5 6 7 9 2 4 4 5 6 7 8 8 6 8 7 6 8 10 9 7 6 7 7 7 8 8 9 9 10 11 11 11
3 3 3 2 2 4 1 5 1 2 1 1 2 5 5 3 3 1 1 2 5 5 4 4 4 4 5 5 6 9 7 6 7 6 5 5 6 6 5 5 6 4 5 4 3 5 4 5 7 7 6 8 7 6 6 6 9 7 3 2 5 5 6 6 7 9 8 8 8 8 8 9 10 10 8 8 9 9 8 8 9 11 13 14 15 14
3 6 4 4 4 0 4 1 1 5 1 1 2 3 2 4 5 3 3 4 5 6 4 3 2 6 6 6 5 6 6 4 4 6 5 4 3 4 5 5 5 6 4 4 4 6 9 8 8 8 7 9 4 5 6 7 7 4 5 4 4 5 6 6 5 5 5 5 6 7 7 8 8 9 9 8 8 9 9 12 12 13 11 7 5 9
6 6 2 5 3 4 8 8 8 8 3 5 7 7 5 5 4 5 2 3 3 5 5 6 4 2 3 5 7 6 6 5 4 4 5 5 6 5 5 5 4 5 5 4 5 6 6 5 6 6 6 6 3 5 6 7 6 5 4 5 5 6 7 6 6 5 6 6 7 6 7 7 7 7 8 9 9 8 7 6 9 8 8 8 7 13
6 7 7 6 8 7 3 9 8 5 6 8 10 8 5 5 6 6 6 6 5 3 5 7 5 3 2 1 2 6 5 6 5 5 4 4 6 6 6 6 5 4 5 4 5 5 6 7 6 5 6 7 5 5 6 6 6 5 5 6 6 7 7 7 7 7 7 7 8 9 8 7 7 7 7 7 7 7 8 7 7 14 17 13 10 12
Wind_Direction
124 140 172 195 212 208 197 196 204 211 188 230 232 192 214 215 277 274 250 247 160 101 223 226 231 243 255 220 217 212 195 217 219 213 197 192 181 178 175 172 157 154 159 173 141 131 137 134 142 148 127 118 106 96 100 87 78 99 116 117 110 121 125 120 117 109 109 110 107 90 89 92 86 83 82 73 62 62 61 61 61 58 60 60 62 60
91 195 229 218 216 179 194 206 215 229 239 230 242 257 277 200 255 241 227 197 296 174 288 247 250 251 250 236 226 204 181 212 209 212 207 196 189 181 172 168 159 151 134 139 130 140 129 131 148 132 123 125 118 113 110 110 93 92 96 104 103 94 92 95 102 112 97 75 93 112 105 103 90 86 83 81 68 68 65 61 61 61 59 63 63 62
196 216 226 223 216 186 226 216 204 209 234 240 224 243 257 263 243 291 14 25 296 154 258 281 271 258 261 260 221 190 200 214 209 203 200 187 185 180 177 166 148 151 159 157 160 154 157 150 147 125 123 122 123 129 125 123 108 96 87 89 93 89 95 94 95 99 101 98 90 100 108 106 98 70 80 85 83 77 74 63 61 60 60 63 62 60
251 273 238 225 187 210 240 238 248 236 206 215 236 205 230 237 222 284 291 292 246 162 227 275 277 277 278 263 248 213 204 220 220 218 217 196 181 182 183 171 162 161 162 169 169 168 162 154 150 134 135 133 133 130 125 125 114 107 107 105 99 94 90 95 95 99 92 94 96 86 99 88 92 106 88 82 75 72 71 62 60 55 62 63 67 61
203 213 218 185 197 191 221 228 219 225 248 244 191 190 193 227 225 193 257 274 320 321 17 307 293 272 227 256 259 236 226 17 30 124 187 212 207 176 147 155 167 168 166 163 168 168 165 157 162 153 149 134 133 133 139 137 123 118 119 115 111 110 109 107 115 113 115 109 99 101 92 94 91 75 81 83 66 65 73 77 58 54 60 66 68 64
241 237 92 154 197 213 214 240 218 182 229 259 227 193 208 185 223 266 17 80 13 329 256 169 315 275 249 236 247 278 106 215 243 182 203 190 173 160 171 174 172 166 167 166 172 173 170 162 155 149 143 133 130 126 125 119 117 120 119 117 113 112 115 118 117 120 121 120 123 123 117 108 100 91 82 85 99 86 75 78 82 64 59 66 67 62
214 190 220 178 182 212 210 216 227 170 214 206 268 200 207 210 219 227 213 75 281 247 286 127 214 281 306 243 238 217 186 218 239 218 210 189 180 181 178 174 174 168 165 162 160 163 163 165 152 151 147 142 131 123 117 112 115 115 121 120 122 124 122 125 126 122 117 105 101 104 106 108 114 113 88 98 91 96 92 88 75 71 59 57 68 62
140 178 187 193 181 196 209 218 237 173 165 237 242 165 189 208 214 219 214 207 241 230 295 46 126 277 286 234 236 199 197 221 225 228 216 206 195 193 184 178 174 172 167 164 168 168 167 162 158 154 145 141 134 123 113 113 116 123 127 122 119 122 121 118 115 100 111 112 111 109 105 105 108 110 120 115 103 93 96 83 76 73 67 62 65 74
155 185 169 184 188 189 202 205 197 159 159 214 247 161 142 182 203 170 180 195 221 19 290 191 53 309 252 293 266 167 213 242 236 224 217 209 201 195 188 183 177 173 168 162 163 168 166 163 155 143 138 136 123 126 127 128 128 121 116 109 108 108 112 114 112 110 102 110 117 117 119 109 106 113 114 113 104 99 95 90 81 79 75 71 65 67
320 170 196 169 173 205 211 278 146 161 191 261 152 87 77 77 72 97 111 96 330 312 250 181 165 217 277 187 114 295 235 239 233 226 220 206 198 192 190 187 175 162 157 159 157 157 156 153 141 136 127 124 128 127 122 122 122 121 117 109 108 107 111 117 115 115 114 115 122 121 125 124 125 123 115 110 110 105 102 97 92 87 82 80 77 70
218 330 185 103 196 185 129 109 114 230 191 130 78 65 21 34 33 6 67 88 17 255 243 179 195 165 278 195 178 155 217 213 230 246 232 195 199 202 197 182 174 162 155 154 149 149 147 144 136 137 136 137 130 131 130 128 129 130 121 118 109 116 115 119 123 124 126 125 128 129 134 133 132 133 128 124 115 115 110 109 106 102 99 89 88 86
26 2 118 267 84 99 108 84 353 73 143 129 106 116 55 343 15 33 350 69 197 263 191 184 189 175 226 293 266 223 286 317 218 229 207 190 196 196 187 178 170 161 157 153 149 150 145 140 140 139 141 146 144 138 135 135 132 132 129 122 116 117 122 124 127 126 129 131 132 132 137 136 138 138 137 134 134 136 129 126 121 118 105 96 91 88
284 182 253 43 248 136 103 91 338 19 10 88 96 88 139 239 46 324 58 239 204 242 250 200 175 274 238 249 258 271 274 265 218 216 212 198 196 179 169 166 166 163 160 160 157 152 156 157 155 153 151 148 152 153 149 147 141 138 135 133 127 130 133 133 135 133 134 136 141 143 142 140 139 137 136 136 133 142 135 136 130 126 118 120 102 94
275 266 182 210 357 239 137 164 156 183 235 129 142 154 137 193 209 256 223 240 282 301 247 168 180 236 321 287 238 248 253 263 279 277 232 195 181 172 168 162 161 165 165 162 159 162 164 162 160 157 157 157 156 156 156 153 148 146 142 140 132 139 138 137 136 138 138 143 147 147 147 144 142 139 138 138 138 140 133 134 130 131 131 125 122 120
237 318 240 144 244 184 185 192 188 162 158 201 114 151 188 159 159 226 187 210 222 226 291 288 114 235 128 235 250 242 278 292 296 285 157 141 154 153 147 141 145 156 166 164 168 172 170 167 165 163 162 162 161 161 159 157 153 147 145 143 140 138 145 142 144 141 141 144 143 142 140 137 135 136 133 133 134 135 131 129 126 124 124 121 128 121
211 227 262 191 140 155 187 201 114 98 106 229 173 58 98 216 143 231 187 191 269 332 315 209 205 187 193 238 266 269 306 12 355 32 106 113 124 132 143 158 165 167 167 169 170 172 173 168 163 160 163 164 166 166 163 160 157 152 151 147 147 144 150 148 145 146 145 144 139 139 136 135 130 126 121 119 117 117 123 130 128 128 124 125 123 121
100 250 299 124 54 171 197 125 190 148 198 215 111 203 208 145 169 276 354 236 101 13 254 155 275 288 300 275 224 160 46 345 17 70 113 136 143 147 160 167 172 174 171 173 174 172 171 168 169 168 166 165 168 169 169 167 164 157 153 151 149 147 149 150 150 147 144 140 137 136 132 133 131 133 135 135 131 127 123 121 122 125 131 127 125 124
154 229 317 113 200 311 99 172 87 357 142 99 190 223 82 55 102 149 235 359 188 243 268 149 232 265 114 275 39 57 150 262 245 183 180 159 159 166 175 177 179 178 174 167 167 172 175 173 169 167 170 170 172 168 165 164 160 156 154 154 150 153 154 157 151 149 149 145 139 138 135 133 135 134 132 132 131 130 125 122 123 128 129 136 137 128
142 277 204 341 254 298 346 110 26 343 47 161 193 210 142 244 249 245 106 249 212 238 284 244 218 247 188 239 93 231 220 217 220 206 176 188 189 184 177 179 172 160 160 169 173 174 177 177 175 170 168 166 164 164 161 153 151 151 151 154 155 156 157 155 150 145 144 144 142 143 141 139 135 134 131 129 128 130 131 137 142 141 140 131 131 128
51 191 305 334 99 253 51 125 192 201 286 47 77 165 178 101 152 143 199 181 121 245 151 286 86 254 179 220 179 208 207 207 194 197 207 199 192 183 181 177 175 177 177 175 176 180 179 176 171 168 166 167 166 164 162 155 151 154 154 153 154 150 149 149 151 152 148 147 141 137 132 132 136 137 137 139 138 138 142 146 144 143 140 146 137 134
228 145 249 205 297 108 188 185 203 173 173 171 119 198 199 123 257 117 299 169 173 190 206 272 285 261 250 204 187 203 202 203 187 200 205 200 196 193 183 178 179 179 177 178 179 178 176 173 167 164 163 159 154 156 156 161 163 159 156 161 163 160 159 160 159 153 151 144 145 143 145 146 144 142 138 136 140 139 145 146 144 147 146 132 137 139
180 205 203 123 177 214 256 246 213 196 193 183 170 192 181 157 166 178 251 105 182 152 240 159 259 263 251 70 243 223 223 205 202 198 198 197 190 188 184 184 179 178 182 180 178 176 171 166 161 154 152 153 156 163 165 163 157 161 167 168 163 160 164 161 163 157 151 147 148 149 148 149 145 143 141 140 144 145 148 151 149 148 140 138 146 144
147 94 94 191 213 201 225 280 309 157 110 176 184 217 193 193 171 188 224 231 357 237 128 199 326 279 204 312 295 261 248 223 212 198 203 190 183 181 181 184 185 183 180 180 177 172 168 167 167 167 166 167 168 167 163 163 167 168 167 166 169 164 169 166 160 154 151 149 150 152 151 147 147 146 146 146 150 152 153 151 148 149 142 144 146 149
101 145 195 255 112 329 341 323 14 30 94 327 275 187 165 208 189 209 205 168 203 223 195 315 252 264 324 335 304 299 280 247 188 194 198 170 173 178 172 175 180 177 178 165 150 147 157 164 161 158 167 168 170 170 172 172 166 166 171 172 167 169 166 162 159 154 150 149 151 153 150 152 150 149 153 154 158 157 156 152 150 148 142 146 144 143
149 230 142 159 296 285 318 337 294 344 70 217 198 195 198 185 206 218 82 133 286 222 159 159 246 253 276 313 323 9 5 79 184 179 168 171 171 174 179 175 172 169 159 162 165 164 162 166 174 182 178 174 171 172 171 170 174 174 175 172 171 169 166 159 158 155 155 154 154 159 158 158 158 159 162 161 160 159 156 154 150 150 150 146 145 148
180 175 157 191 205 209 213 194 192 203 209 203 216 165 198 196 193 175 236 208 233 213 143 224 249 249 282 327 7 6 21 38 4 184 172 170 167 168 173 174 169 167 175 173 168 164 179 186 183 178 179 177 178 174 174 176 177 178 175 177 170 164 165 165 159 160 156 160 161 165 166 165 166 168 167 164 163 162 160 156 153 154 155 153 148 145
163 178 199 204 204 221 220 128 190 110 83 186 215 184 209 203 202 201 227 203 222 111 193 226 239 292 278 280 291 268 299 271 135 154 177 176 182 181 168 168 171 176 177 178 180 182 173 177 190 190 185 182 177 177 178 178 180 178 173 172 173 171 166 166 164 162 163 168 169 169 173 173 174 171 170 168 164 161 159 159 158 157 159 159 151 151
98 188 221 216 230 236 142 169 188 162 169 206 182 208 200 196 194 193 204 227 121 148 248 230 133 245 252 200 232 232 244 237 232 191 177 182 179 172 167 164 163 159 161 164 172 179 188 192 188 188 188 182 181 178 181 185 182 178 177 176 174 170 169 171 168 167 170 172 176 178 178 179 174 172 169 164 161 161 161 157 160 159 155 152 156 156
157 206 224 172 239 243 213 155 146 144 207 192 201 200 196 201 192 200 219 223 149 208 238 225 177 232 248 201 218 210 192 197 200 195 182 149 128 126 139 156 168 173 172 180 190 189 188 190 194 192 186 185 177 183 185 182 181 180 180 176 177 176 180 171 168 172 175 179 181 184 180 174 173 168 164 163 163 163 165 165 161 155 153 154 152 147
109 233 166 185 232 240 237 207 178 186 220 261 224 218 208 197 202 204 220 221 210 228 240 245 222 234 245 231 221 215 189 181 149 116 112 134 150 143 146 156 170 173 180 187 191 194 198 201 194 189 183 182 187 186 184 185 187 187 183 181 181 183 178 167 177 175 179 183 185 181 178 176 171 171 168 169 171 168 165 164 161 158 157 156 153 150
163 230 143 164 223 246 234 208 210 210 214 249 243 226 220 209 220 221 225 228 224 244 247 247 276 262 248 211 167 137 112 86 110 147 167 152 141 147 149 169 176 183 189 193 194 200 202 198 188 179 186 192 189 189 188 190 190 187 187 186 188 185 179 175 177 182 181 186 182 178 176 177 178 173 177 175 168 167 165 165 163 161 159 156 155 158
178 233 54 157 198 253 170 196 218 200 220 250 261 239 190 130 194 220 222 221 206 225 233 240 245 253 170 134 85 114 129 131 146 159 162 170 163 147 162 178 185 186 190 197 202 202 197 190 187 189 194 193 192 190 189 190 189 185 193 191 191 186 174 180 181 182 185 182 178 182 182 183 177 178 178 171 174 170 169 163 163 166 165 160 160 162
183 141 155 172 187 223 113 186 183 154 266 286 251 235 182 205 219 222 225 219 215 219 226 227 232 234 182 142 121 159 152 154 154 170 170 168 174 168 178 186 193 196 203 200 200 200 198 196 196 195 195 193 193 194 198 191 184 194 194 191 189 165 172 182 184 184 183 185 186 187 186 182 181 181 177 178 174 171 167 168 169 169 167 174 170 154
149 176 176 169 180 131 168 142 133 137 190 236 38 164 177 200 209 216 226 217 218 200 223 225 248 134 148 176 166 177 177 184 174 190 169 160 177 189 192 201 214 230 237 234 219 208 208 202 202 202 199 199 199 201 194 185 192 198 190 182 166 174 181 183 188 188 190 188 191 189 186 185 182 182 180 175 174 172 174 175 182 177 173 161 156 167
172 183 186 147 177 180 159 122 156 183 230 11 229 326 191 194 198 210 227 223 222 218 234 248 247 166 182 182 189 184 187 183 195 169 206 169 142 162 190 223 235 244 246 235 216 214 208 201 200 200 201 206 200 187 173 191 197 190 179 176 181 186 185 190 189 192 192 193 193 185 187 186 184 184 180 179 177 177 180 181 175 173 176 172 173 175
174 177 140 184 135 66 143 181 180 224 291 63 344 345 117 128 183 198 245 246 231 216 214 226 219 190 179 186 191 180 173 190 217 238 198 193 161 180 226 240 236 226 223 217 213 213 194 190 196 197 206 196 172 183 186 195 190 181 189 182 185 186 190 187 190 196 194 197 192 190 189 183 184 186 183 179 179 180 183 181 180 179 177 172 172 168
163 161 164 200 159 179 189 200 237 339 320 263 94 194 157 159 166 162 214 246 217 210 199 217 198 177 182 201 179 124 52 46 337 288 296 214 225 216 217 222 216 213 212 216 202 205 201 199 197 201 184 176 186 183 196 194 177 180 168 174 187 184 187 186 195 200 199 199 193 191 186 183 184 188 185 182 181 186 186 182 183 182 169 171 176 174
171 176 193 190 217 181 144 230 311 263 247 272 197 229 198 186 172 181 171 269 318 193 185 194 182 183 186 178 115 105 103 100 247 251 243 230 220 182 210 209 203 200 201 201 190 206 185 185 180 172 171 178 187 194 181 158 164 164 170 181 182 182 188 191 204 204 198 198 193 190 187 187 186 187 185 183 190 190 191 188 183 182 178 179 176 184
20 58 146 193 205 135 209 216 223 234 244 161 227 234 228 154 124 101 65 289 267 202 196 183 191 177 181 160 167 141 126 197 233 238 241 196 203 195 174 186 173 177 173 168 165 166 175 175 165 158 144 151 177 188 162 162 160 164 179 182 182 185 190 202 208 201 199 202 196 190 188 187 187 189 188 191 196 192 188 187 187 180 178 191 181 180
153 179 145 209 210 204 204 212 229 223 243 247 235 228 208 159 121 75 42 273 259 220 208 182 192 171 172 171 153 164 169 203 232 243 202 193 195 185 176 162 142 126 113 100 69 131 135 125 106 122 150 174 192 166 159 156 161 174 182 184 177 186 202 209 208 203 203 198 185 186 187 189 191 193 191 196 193 190 194 178 162 173 181 185 175 164
180 198 199 204 210 212 209 232 288 293 252 230 202 201 196 182 106 153 201 222 202 199 194 185 202 182 156 153 166 166 215 204 201 173 139 116 96 87 67 96 128 140 142 140 143 138 129 143 149 167 181 187 164 159 162 156 161 179 185 178 179 203 210 212 204 194 195 185 183 186 190 191 193 194 196 192 189 182 172 170 176 164 174 176 168 158
228 142 247 211 217 212 213 211 230 262 230 175 253 170 179 123 206 193 226 170 155 177 202 194 184 179 161 170 184 201 159 115 105 84 112 123 121 114 103 108 103 78 63 109 139 134 130 133 130 128 143 163 161 159 156 159 168 185 174 178 202 214 217 185 174 178 173 181 189 190 188 192 195 194 186 169 155 164 178 173 162 172 170 163 166 171
178 166 191 200 202 352 152 223 194 236 207 134 124 88 289 143 232 181 144 64 146 158 147 186 178 195 166 186 189 135 136 139 145 147 128 127 126 141 144 148 149 155 151 130 120 155 140 149 169 184 191 184 164 157 160 158 173 176 180 191 220 215 152 164 164 170 179 183 187 188 189 188 182 178 168 171 173 171 175 165 163 164 160 165 172 177
167 149 198 216 177 185 184 202 212 211 136 179 148 169 189 197 187 153 133 104 132 147 163 132 208 179 181 166 170 167 153 145 104 109 103 93 112 120 131 132 133 141 154 173 166 170 161 163 178 190 209 188 171 166 166 164 173 176 181 218 213 129 154 160 171 168 177 186 190 186 187 183 181 176 171 170 167 170 165 170 169 166 175 174 175 180
205 197 179 184 178 172 201 183 182 248 143 161 82 292 136 154 142 164 128 147 145 224 174 147 195 194 187 157 153 150 144 182 161 165 149 178 164 168 170 187 180 180 180 181 189 178 172 179 186 185 198 204 181 178 171 172 168 178 203 226 151 180 168 170 159 171 184 191 188 186 184 173 178 178 176 174 167 169 172 168 165 173 183 173 185 188
351 164 167 103 254 99 29 118 114 84 145 122 30 251 142 117 93 125 141 120 216 170 174 180 192 169 154 153 132 190 168 165 138 176 161 165 173 195 180 171 197 189 186 170 177 187 188 164 155 170 193 213 204 181 180 183 169 178 220 171 172 174 166 157 169 182 196 189 183 180 160 169 178 178 178 174 182 184 180 175 177 181 180 184 195 195
266 207 102 122 250 141 225 133 159 171 160 144 118 57 44 81 147 148 163 161 166 170 163 184 163 174 165 157 148 154 169 165 155 175 168 166 178 179 181 191 195 188 180 195 205 161 163 162 168 193 195 205 212 193 192 192 204 214 177 160 171 163 166 172 180 190 183 185 175 165 169 175 179 177 176 181 184 184 177 178 182 181 183 190 193 199
273 188 78 200 96 146 237 160 216 3 17 159 154 145 147 129 91 64 171 159 147 160 149 174 138 119 129 135 158 146 168 178 150 164 170 179 181 183 191 195 201 184 218 206 166 171 162 178 193 199 197 215 211 195 197 203 216 215 179 163 160 160 161 181 187 190 193 186 177 176 181 184 176 173 181 190 183 183 188 194 189 189 194 192 196 195
183 124 192 173 137 125 20 1 40 67 36 295 305 277 226 170 150 123 108 113 128 132 111 72 99 156 152 172 158 143 138 193 162 162 168 190 187 190 204 206 198 202 184 181 186 175 187 195 201 208 201 223 196 183 200 218 225 199 191 187 160 155 168 188 195 191 185 177 172 187 188 187 180 188 183 187 198 211 200 189 192 205 218 227 209 208
100 171 194 105 111 183 188 182 165 127 217 229 244 223 212 202 158 153 120 108 137 142 144 118 73 62 131 151 155 141 142 179 200 159 176 186 194 206 211 213 204 199 208 206 174 187 204 208 211 216 221 235 196 187 204 223 223 206 194 175 168 164 176 179 173 182 191 182 187 185 179 190 189 189 190 189 198 200 230 244 221 222 216 219 207 220
159 189 150 170 182 213 176 165 189 132 157 193 193 212 190 181 165 163 180 191 202 185 150 138 127 101 140 169 163 132 147 165 199 179 175 188 213 210 203 197 201 204 211 187 171 207 205 216 207 210 229 230 208 208 210 217 213 198 199 184 178 176 180 165 177 191 196 184 201 191 188 186 191 193 193 195 190 196 207 229 242 229 228 224 218 222